Waarnemingen

Advertentie
Mijn weer
Ajaccio, Frankrijk (7761): temperatuur & dauwpunt: 16.07.2018 03:00:00 - 22.07.2018 03:00:00 (CEST)Ajaccio, Frankrijk (7761): temperatuur 5cm: 16.07.2018 03:00:00 - 22.07.2018 03:00:00 (CEST)Ajaccio, Frankrijk (7761): temperatuur -20cm & temperatuur -100cm: 16.07.2018 03:00:00 - 22.07.2018 03:00:00 (CEST)Ajaccio, Frankrijk (7761): windsnelheid & windstoten: 16.07.2018 03:00:00 - 22.07.2018 03:00:00 (CEST)Ajaccio, Frankrijk (7761): windrichting: 16.07.2018 03:00:00 - 22.07.2018 03:00:00 (CEST)Ajaccio, Frankrijk (7761): luchtdruk: 16.07.2018 03:00:00 - 22.07.2018 03:00:00 (CEST)Ajaccio, Frankrijk (7761): zicht: 16.07.2018 03:00:00 - 22.07.2018 03:00:00 (CEST)Ajaccio, Frankrijk (7761): Zonneschijnduur: 16.07.2018 03:00:00 - 22.07.2018 03:00:00 (CEST)Ajaccio, Frankrijk (7761): neerslag: 16.07.2018 03:00:00 - 22.07.2018 03:00:00 (CEST)
Datum & Tijd tt [°C] td [°C] tt 5cm [°C] tt -20cm [°C] tt -100cm [°C] ff [km/u] ff [kn] fx [km/u] fx [kn] dd ppp [hPa] vv [km] sd [min] rr [mm]
22.07.2018 03:00:00 - - - - - - - - - - - - - -
22.07.2018 02:00:00 21,5 16,7 20,5 32,7 27,6 8 4 14 8 NO 1012,7 36 0 0,0
22.07.2018 01:00:00 21,9 17,7 21,1 32,9 27,6 7 4 10 5 NO 1013,0 32 0 0,0
22.07.2018 00:00:00 23,0 19,2 22,0 33,1 27,6 8 4 11 6 NNO 1012,6 29 0 0,0
21.07.2018 23:00:00 23,8 19,5 22,6 33,1 27,6 4 2 6 4 OZO 1012,1 30 0 0,0
21.07.2018 22:00:00 24,8 19,4 24,0 33,2 27,6 6 3 24 13 NO 1011,7 36 0 0,0
21.07.2018 21:00:00 25,4 20,4 24,7 33,1 27,6 14 8 30 16 NNW 1010,8 33 20 0,0
21.07.2018 20:00:00 27,8 18,5 28,7 32,8 27,6 14 8 24 13 NW 1010,2 45 60 0,0
21.07.2018 19:00:00 29,8 14,7 31,8 32,5 27,6 14 8 34 18 WNW 1009,8 44 60 0,0
21.07.2018 18:00:00 30,2 15,1 32,4 32,1 27,5 22 12 39 21 NW 1009,9 44 60 0,0
21.07.2018 17:00:00 31,6 15,5 33,9 31,7 27,5 16 8 29 16 WNW 1009,8 50 60 0,0
21.07.2018 16:00:00 31,3 18,6 35,0 31,3 27,5 8 4 22 12 ZW 1010,0 37 60 0,0
21.07.2018 15:00:00 30,9 20,5 38,3 31,0 27,6 16 9 22 12 ZZW 1010,2 37 60 0,0
21.07.2018 14:00:00 30,8 19,2 38,9 30,7 27,5 17 9 24 13 ZZW 1010,4 40 60 0,0
21.07.2018 13:00:00 29,7 20,3 38,6 30,6 27,5 13 7 27 15 ZZW 1010,7 45 60 0,0
21.07.2018 12:00:00 29,0 19,9 37,4 30,6 27,5 18 10 25 13 ZW 1010,8 51 60 0,0
21.07.2018 11:00:00 28,4 19,3 31,9 30,6 27,5 9 5 22 12 WZW 1010,5 58 58 0,0
21.07.2018 10:00:00 27,4 15,7 29,6 30,8 27,5 6 4 12 7 ZZW 1009,9 48 31 0,0
21.07.2018 09:00:00 27,1 13,8 25,2 31,0 27,5 3 1 7 4 ONO 1010,0 56 26 0,0
21.07.2018 08:00:00 23,8 13,9 22,1 31,2 27,5 3 2 12 7 O 1010,1 60 6 0,0
21.07.2018 07:00:00 22,7 12,6 20,9 31,4 27,5 0 0 19 10 N 1010,2 60 0 0,0
21.07.2018 06:00:00 21,6 12,7 20,6 31,6 27,5 9 5 16 9 NO 1010,1 60 0 0,0
21.07.2018 05:00:00 21,7 12,3 19,7 31,9 27,5 11 6 22 12 NO 1010,7 60 0 0,0
21.07.2018 04:00:00 20,1 13,8 19,1 32,1 27,5 10 6 18 10 NO 1011,5 57 0 0,0
21.07.2018 03:00:00 20,5 15,3 19,7 32,4 27,5 7 4 10 5 NO 1012,7 49 0 0,0
21.07.2018 02:00:00 21,5 15,3 20,3 32,6 27,5 5 3 13 7 O 1012,1 56 0 0,0
21.07.2018 01:00:00 21,5 16,5 20,6 32,7 27,4 5 3 10 6 ONO 1011,6 39 0 0,0
21.07.2018 00:00:00 22,2 16,9 20,9 32,9 27,4 5 3 13 7 O 1011,2 37 0 0,0
20.07.2018 23:00:00 22,9 17,6 21,5 33,0 27,4 5 3 9 5 ONO 1011,4 36 0 0,0
20.07.2018 22:00:00 24,3 18,0 22,7 33,0 27,4 6 3 7 4 O 1011,9 46 0 0,0
20.07.2018 21:00:00 25,6 18,0 24,3 32,9 27,4 3 2 6 3 ONO 1012,4 41 2 0,0
20.07.2018 20:00:00 26,6 19,2 28,6 32,6 27,4 4 2 21 11 ZZW 1013,0 54 60 0,0
20.07.2018 19:00:00 27,9 20,7 31,6 32,3 27,4 18 10 25 13 ZZW 1013,4 60 60 0,0
20.07.2018 18:00:00 29,4 19,4 32,3 31,9 27,4 17 9 21 11 ZW 1013,2 49 60 0,0
20.07.2018 17:00:00 28,7 19,6 32,1 31,5 27,4 11 6 24 13 ZZW 1013,2 34 60 0,0
20.07.2018 16:00:00 29,3 19,6 34,2 31,1 27,4 16 8 26 14 ZZW 1013,9 32 60 0,0
20.07.2018 15:00:00 28,9 20,9 36,9 30,8 27,4 19 10 31 17 ZW 1014,2 36 60 0,0
20.07.2018 14:00:00 28,8 20,0 37,8 30,5 27,4 13 7 26 14 ZW 1014,5 35 60 0,0
20.07.2018 13:00:00 28,3 20,8 37,2 30,4 27,4 17 9 26 14 ZW 1015,1 20 60 0,0
20.07.2018 12:00:00 27,8 21,1 36,4 30,3 27,3 17 9 22 12 ZW 1015,0 49 60 0,0
20.07.2018 11:00:00 26,9 20,0 35,7 30,5 27,4 12 6 20 11 WZW 1014,9 18 60 0,0
20.07.2018 10:00:00 26,4 17,5 30,3 30,6 27,3 9 5 13 7 WZW 1015,0 20 60 0,0
20.07.2018 09:00:00 24,4 16,1 26,3 30,8 27,3 5 3 11 6 N 1014,9 51 60 0,0
20.07.2018 08:00:00 22,1 16,6 19,2 31,1 27,3 7 4 16 9 NNO 1014,9 30 60 0,0
20.07.2018 07:00:00 18,9 15,8 17,5 31,3 27,3 10 5 14 8 NO 1015,0 35 24 0,0
20.07.2018 06:00:00 18,1 15,4 17,4 31,6 27,3 10 5 15 8 NO 1015,1 26 0 0,0
20.07.2018 05:00:00 18,4 16,2 17,4 31,8 27,3 8 5 12 6 NO 1015,1 21 0 0,0
20.07.2018 04:00:00 19,5 16,3 18,6 32,0 27,3 7 4 12 7 NO 1015,0 27 0 0,0
20.07.2018 03:00:00 20,2 16,8 19,3 32,3 27,3 8 4 16 9 ONO 1014,8 24 0 0,0
20.07.2018 02:00:00 20,4 17,2 19,8 32,5 27,3 11 6 13 7 NO 1015,2 25 0 0,0
20.07.2018 01:00:00 20,6 18,4 19,7 32,7 27,3 9 5 11 6 NO 1015,4 22 0 0,0
20.07.2018 00:00:00 22,0 18,8 21,0 32,8 27,3 5 3 12 7 O 1015,2 32 0 0,0
19.07.2018 23:00:00 22,7 19,9 21,5 32,9 27,3 6 3 9 5 ONO 1015,1 23 0 0,0
19.07.2018 22:00:00 24,0 20,3 22,7 32,9 27,3 4 2 9 5 ONO 1015,0 27 0 0,0
19.07.2018 21:00:00 24,7 20,2 24,3 32,8 27,3 2 1 16 9 ZW 1014,5 38 26 0,0
19.07.2018 20:00:00 26,5 21,3 28,4 32,6 27,3 11 6 24 13 ZZW 1014,4 32 60 0,0
19.07.2018 19:00:00 27,3 20,9 30,3 32,2 27,3 19 10 30 16 ZZW 1014,3 36 60 0,0
19.07.2018 18:00:00 28,5 20,5 31,3 31,8 27,3 21 11 33 18 ZZW 1014,2 32 60 0,0
19.07.2018 17:00:00 29,5 20,6 32,6 31,4 27,3 18 10 31 17 Z 1014,4 35 60 0,0
19.07.2018 16:00:00 30,3 18,7 33,8 31,0 27,3 21 11 34 18 Z 1014,6 36 60 0,0
19.07.2018 15:00:00 31,4 16,9 38,8 30,6 27,2 17 9 32 17 WZW 1014,7 19 60 0,0
19.07.2018 14:00:00 32,4 14,1 39,3 30,3 27,2 21 12 29 16 Z 1014,7 41 60 0,0
19.07.2018 13:00:00 30,6 19,9 36,5 30,2 27,2 15 8 27 15 ZW 1014,8 44 60 0,0
19.07.2018 12:00:00 28,5 19,4 37,1 30,1 27,2 16 8 21 11 ZZW 1014,8 54 60 0,0
19.07.2018 11:00:00 27,9 18,3 36,4 30,2 27,2 15 8 20 11 ZW 1014,5 60 60 0,0
19.07.2018 10:00:00 27,2 16,5 33,3 30,4 27,2 8 4 11 6 WZW 1014,1 60 60 0,0
19.07.2018 09:00:00 26,7 14,8 25,7 30,6 27,2 2 1 11 6 NNO 1014,0 40 60 0,0
19.07.2018 08:00:00 22,3 15,9 19,2 30,8 27,2 9 5 16 9 NNO 1013,7 39 60 0,0
19.07.2018 07:00:00 19,1 15,0 18,2 31,1 27,2 10 5 14 7 NO 1013,7 33 13 0,0
19.07.2018 06:00:00 19,2 15,1 18,1 31,3 27,2 9 5 13 7 ONO 1013,9 34 0 0,0
19.07.2018 05:00:00 19,4 15,7 18,4 31,6 27,2 10 5 17 9 NO 1013,6 31 0 0,0
19.07.2018 04:00:00 19,6 16,2 18,7 31,8 27,2 11 6 14 7 NO 1014,3 31 0 0,0
19.07.2018 03:00:00 20,2 16,6 19,4 32,0 27,2 9 5 14 7 ONO 1014,6 27 0 0,0
19.07.2018 02:00:00 21,0 17,0 20,2 32,2 27,2 9 5 13 7 NO 1015,1 27 0 0,0
19.07.2018 01:00:00 21,4 17,4 20,4 32,4 27,2 8 5 12 6 NO 1015,4 25 0 0,0
19.07.2018 00:00:00 21,8 18,6 20,8 32,6 27,2 6 3 9 5 NO 1015,1 19 0 0,0
18.07.2018 23:00:00 22,7 19,5 21,8 32,6 27,2 3 2 7 4 OZO 1014,6 15 0 0,0
18.07.2018 22:00:00 24,2 20,7 22,7 32,7 27,2 3 1 6 3 NO 1013,9 14 0 0,0
18.07.2018 21:00:00 25,1 21,6 24,5 32,5 27,2 2 1 5 3 ZW 1013,7 22 0 0,0
18.07.2018 20:00:00 26,2 21,6 28,6 32,3 27,2 4 2 15 8 WZW 1013,9 30 54 0,0
18.07.2018 19:00:00 27,4 22,1 31,9 31,9 27,2 11 6 16 9 ZW 1014,2 20 60 0,0
18.07.2018 18:00:00 27,6 21,6 32,6 31,5 27,2 11 6 19 11 ZW 1014,4 33 60 0,0
18.07.2018 17:00:00 28,2 21,7 32,7 31,1 27,1 15 8 23 12 ZW 1015,0 20 60 0,0
18.07.2018 16:00:00 28,4 21,9 33,6 30,7 27,2 17 9 26 14 ZW 1015,5 19 60 0,0
18.07.2018 15:00:00 28,4 21,9 37,3 30,3 27,1 15 8 24 13 ZW 1015,7 20 60 0,0
18.07.2018 14:00:00 28,0 21,8 37,9 30,0 27,1 16 8 24 13 ZW 1015,9 20 60 0,0
18.07.2018 13:00:00 28,2 21,7 36,8 29,9 27,1 19 11 28 15 ZW 1016,3 19 60 0,0
18.07.2018 12:00:00 27,6 21,2 35,7 29,8 27,2 15 8 21 11 WZW 1016,1 19 60 0,0
18.07.2018 11:00:00 26,8 20,4 35,4 29,9 27,1 12 6 27 14 WZW 1016,3 20 60 0,0
18.07.2018 10:00:00 25,8 19,0 31,7 30,0 27,1 9 5 14 8 ZW 1016,0 19 60 0,0
18.07.2018 09:00:00 25,5 18,2 25,2 30,3 27,1 6 3 12 6 NO 1015,8 49 60 0,0
18.07.2018 08:00:00 21,5 17,5 19,7 30,5 27,2 9 5 16 9 NO 1015,9 20 60 0,0
18.07.2018 07:00:00 19,6 16,6 18,1 30,7 27,1 6 3 15 8 NO 1015,9 22 25 0,0
18.07.2018 06:00:00 18,8 16,8 17,8 30,9 27,1 10 5 13 7 NO 1015,5 21 0 0,0
18.07.2018 05:00:00 19,1 16,7 18,1 31,2 27,1 7 4 10 6 ONO 1015,5 20 0 0,0
18.07.2018 04:00:00 19,9 17,5 18,8 31,4 27,1 7 4 13 7 NO 1015,4 15 0 0,0
18.07.2018 03:00:00 20,2 17,8 19,6 31,6 27,1 8 4 12 6 NO 1015,6 19 0 0,0
18.07.2018 02:00:00 20,5 17,9 19,9 31,8 27,1 5 3 10 6 O 1016,0 15 0 0,0
18.07.2018 01:00:00 20,9 18,5 19,8 32,0 27,1 8 4 11 6 ONO 1015,9 13 0 0,0
18.07.2018 00:00:00 21,5 18,9 20,6 32,1 27,1 6 4 9 5 NO 1015,7 16 0 0,0
17.07.2018 23:00:00 22,6 19,2 21,7 32,2 27,1 6 3 9 5 ONO 1015,4 19 0 0,0
17.07.2018 22:00:00 23,5 19,2 22,3 32,2 27,1 4 2 12 7 ZO 1015,3 19 0 0,0
17.07.2018 21:00:00 24,7 20,0 24,3 32,0 27,1 10 5 16 9 ZW 1014,6 19 26 0,0
17.07.2018 20:00:00 26,0 20,1 28,7 31,8 27,1 11 6 21 11 ZW 1014,1 20 60 0,0
17.07.2018 19:00:00 27,1 20,7 31,5 31,4 27,1 15 8 25 13 ZW 1013,9 19 60 0,0
17.07.2018 18:00:00 27,7 20,8 32,1 31,1 27,1 17 9 26 14 ZZW 1013,8 19 60 0,0
17.07.2018 17:00:00 28,3 20,8 32,0 30,6 27,1 17 9 24 13 ZZW 1013,8 19 60 0,0
17.07.2018 16:00:00 28,5 21,3 33,6 30,2 27,1 18 10 27 15 ZW 1013,9 17 60 0,0
17.07.2018 15:00:00 28,3 20,8 36,5 29,8 27,1 20 11 28 15 ZW 1013,8 18 60 0,0
17.07.2018 14:00:00 28,2 20,0 35,8 29,5 27,1 19 11 43 23 ZW 1013,8 18 60 0,0
17.07.2018 13:00:00 27,1 19,4 36,0 29,3 27,1 20 11 27 15 WZW 1013,7 18 60 0,0
17.07.2018 12:00:00 27,5 17,1 35,5 29,2 27,1 11 6 14 7 WZW 1013,4 20 60 0,0
17.07.2018 11:00:00 26,1 17,2 33,9 29,3 27,1 7 4 15 8 WZW 1013,4 60 60 0,0
17.07.2018 10:00:00 25,1 16,8 30,8 29,5 27,1 9 5 14 7 ZW 1013,3 60 60 0,0
17.07.2018 09:00:00 24,1 15,8 25,8 29,6 27,1 3 1 7 4 ZO 1012,8 20 60 0,0
17.07.2018 08:00:00 21,8 15,6 19,2 29,8 27,1 4 2 12 7 NNO 1012,6 51 60 0,0
17.07.2018 07:00:00 19,0 15,9 17,8 30,0 27,1 9 5 16 8 NO 1012,4 52 25 0,0
17.07.2018 06:00:00 18,5 15,9 17,7 30,2 27,1 9 5 15 8 NO 1012,4 49 0 0,0
17.07.2018 05:00:00 18,8 16,6 17,9 30,4 27,1 10 5 14 7 NO 1012,4 44 0 0,0
17.07.2018 04:00:00 19,7 17,1 18,5 30,6 27,1 6 3 11 6 ONO 1012,0 37 0 0,0
17.07.2018 03:00:00 20,3 18,1 18,8 30,7 27,1 4 2 5 3 O 1012,0 32 0 0,0
17.07.2018 02:00:00 21,6 17,8 19,9 30,9 27,1 4 2 9 5 ONO 1011,5 20 0 0,0
17.07.2018 01:00:00 22,4 17,1 21,5 30,9 27,0 4 2 15 8 O 1011,0 42 0 0,0
17.07.2018 00:00:00 23,1 17,6 22,7 31,1 27,1 10 6 23 13 WZW 1010,6 17 0 0,0
16.07.2018 23:00:00 23,4 18,5 23,1 31,1 27,0 21 11 38 20 WZW 1011,0 20 0 0,0
16.07.2018 22:00:00 23,7 17,9 23,2 31,2 27,1 20 11 36 20 WZW 1011,0 20 0 0,0
16.07.2018 21:00:00 24,3 20,4 24,2 31,1 27,0 27 15 39 21 W 1010,8 15 0 0,0
16.07.2018 20:00:00 25,7 21,6 25,9 31,0 27,0 32 17 41 22 ZW 1010,3 16 12 0,0
16.07.2018 19:00:00 27,4 22,4 27,9 30,8 27,0 26 14 35 19 ZZW 1010,0 11 18 0,0
16.07.2018 18:00:00 27,7 22,4 29,3 30,6 27,0 18 10 35 19 ZZW 1010,5 10 9 0,0
16.07.2018 17:00:00 28,9 22,4 30,7 30,4 27,0 23 12 56 30 ZW 1011,2 9 44 0,0
16.07.2018 16:00:00 29,6 22,3 32,4 30,3 27,0 42 23 64 34 W 1011,9 11 43 0,0
16.07.2018 15:00:00 32,3 17,0 34,2 30,3 27,0 22 12 32 17 ZW 1009,9 60 3 0,0
16.07.2018 14:00:00 33,7 12,1 35,4 30,3 27,0 9 5 20 11 N 1009,8 43 0 0,0
16.07.2018 13:00:00 33,3 13,9 31,6 30,3 26,9 9 5 19 10 NO 1010,4 57 1 0,0
16.07.2018 12:00:00 30,3 14,4 29,8 30,5 26,9 9 5 30 16 NO 1011,0 49 0 0,0
16.07.2018 11:00:00 27,2 15,2 26,1 30,6 26,9 16 9 34 18 NO 1011,6 32 0 0,0
16.07.2018 10:00:00 24,8 14,6 22,8 30,8 26,9 22 12 36 20 O 1012,1 47 0 0,0
16.07.2018 09:00:00 25,2 17,9 23,4 31,0 26,9 10 5 16 9 Z 1013,8 20 0 0,0
16.07.2018 08:00:00 24,3 14,1 21,5 31,2 26,9 7 4 18 10 NNO 1013,1 48 0 0,0
16.07.2018 07:00:00 22,0 14,1 20,2 31,4 26,9 12 7 24 13 NO 1013,6 46 0 0,0
16.07.2018 06:00:00 20,7 15,0 20,0 31,6 26,9 4 2 21 11 NO 1014,6 40 0 0,0
16.07.2018 05:00:00 20,5 15,1 19,3 31,9 26,9 5 3 15 8 O 1014,1 40 0 0,0
16.07.2018 04:00:00 20,1 15,5 19,4 32,1 26,9 10 6 21 11 NO 1014,0 37 0 0,0
16.07.2018 03:00:00 21,0 16,2 20,2 32,4 26,9 8 4 14 8 NNO 1014,9 32 0 0,0

tt = temperatuur
td = dauwpunt
tt 5cm = temperatuur 5cm
tt -20cm = temperatuur -20cm
tt -100cm = temperatuur -100cm
ff = windsnelheid
fx = windstoten
dd = windrichting
ppp = luchtdruk
vv = zicht
sd = Zonneschijnduur
rr = neerslag

Weerstations in de omgeving